Regional Weather Roundup
Issued by NWS

Home | Current Version | Previous Version | Graphics & Text | Print | Product List | Glossary On
Versions: 1 2 3 4 5 6 7 8 9 10 11 12 13 14 15 16 17 18 19 20 21 22 23 24 25 26 27 28 29 30 31 32 33 34 35 36 37 38 39 40 41 42 43 44 45 46 47 48 49 50
000
ASUS43 KMPX 030210
RWRMN
WEATHER ROUNDUP FOR MINNESOTA
NATIONAL WEATHER SERVICE TWIN CITIES/CHANHASSEN MN
900 PM CDT WED SEP 02 2015


NOTE: "FAIR" INDICATES FEW OR NO CLOUDS BELOW 12,000 FEET WITH NO
SIGNIFICANT WEATHER AND/OR OBSTRUCTIONS TO VISIBILITY. N/A MEANS
CURRENT SKY AND/OR WEATHER CONDITIONS ARE NOT AVAILABLE.

MNZ060>063-068>070-030300-
   Twin Cities Metro

CITY           SKY/WX    TMP DP  RH WIND       PRES   REMARKS
TWIN CITIES    MOCLDY    73  68  84 NE7       29.89R
ST PAUL        CLEAR     72  68  87 E5        29.89R
CRYSTAL        PTCLDY    72  68  87 NE6       29.88R
BLAINE         PTCLDY    72  70  94 CALM      29.90R
LAKEVILLE      CLEAR     70  70 100 NE3       29.89R
EDEN PRAIRIE   CLEAR     74  69  85 NE7       29.87R
SOUTH ST PAUL  PTCLDY    73  68  84 CALM      29.89R
LAKE ELMO      CLOUDY    70  68  94 NE6       29.91R
$$
MNZ001>005-007-008-013>017-022>024-027-028-030300-
   Northwest Minnesota

CITY           SKY/WX    TMP DP  RH WIND       PRES   REMARKS
BEMIDJI        CLEAR     72  66  82 SE8       29.90R
HALLOCK        CLEAR     81  64  57 SE9       29.79R
ROSEAU         CLEAR     73  66  78 SE5       29.85R
WARROAD        CLEAR     73  66  78 SE7       29.87R
THIEF RVR FALL CLEAR     73  66  78 SE9       29.84R
CROOKSTON      CLEAR     75  64  69 S8        29.83R
FOSSTON        CLEAR     73  63  68 SE7       29.87R
DETROIT LAKES  CLEAR     73  66  78 SE10      29.89R
MOORHEAD       CLEAR     75  68  78 SE7       29.83R
PARK RAPIDS    CLEAR     73  66  78 SE7       29.91R
MAHNOMEN       FAIR      72  66  82 SE6       29.85S
$$
MNZ006-009>011-018-025>026-030300-
   North Central Minnesota

CITY           SKY/WX    TMP DP  RH WIND       PRES   REMARKS
BAUDETTE       CLEAR     71  63  75 SE7       29.88R
FLAG ISLAND    CLEAR     75  66  73 SE12      29.86R
INTL FALLS     CLEAR     67  64  90 SE7       29.92R
WASKISH        CLEAR     68  64  88 CALM      29.90R
BIG FORK       CLEAR     70  64  83 SE3       29.93R
LONGVILLE      CLEAR     70  66  88 CALM      29.92R
GRAND RAPIDS     N/A     70  63  78 SE6       29.94R
CRANE LAKE     CLEAR     63  61  94 S1        29.96R
ORR            CLEAR     66  63  88 CALM      29.93R
COOK           CLEAR     66  63  88 CALM      29.96R
WALKER         FAIR      71  65  82 SE5       29.91R
$$
MNZ012-019>021-037-030300-
   Northeast Minnesota

CITY           SKY/WX    TMP DP  RH WIND       PRES   REMARKS
DULUTH         CLEAR     63  61  93 E8        29.96R
ELY            CLEAR     63  59  88 SE5       29.97S
HIBBING        CLEAR     65  64  97 SE5       29.95R
EVELETH        CLEAR     63  61  94 CALM      29.97R
DULUTH HARBOR  CLEAR     61  57  88 NE6       29.96R
TWO HARBORS    CLEAR     64  61  88 CALM      29.96R
SILVER BAY     CLEAR     63  61  94 CALM      29.96R
GRAND MARAIS     N/A     58  56  93 CALM      29.97R
G MARAIS ARPRT CLEAR     57  55  94 CALM      30.02R
$$
MNZ029>031-032-039>041-046>048-054>057-064-030300-
   West Central Minnesota

CITY           SKY/WX    TMP DP  RH WIND       PRES   REMARKS
FERGUS FALLS   CLEAR     75  66  73 SE8       29.84R
WHEATON        PTCLDY    72  70  94 E9        29.84R
MORRIS         PTCLDY    73  72  94 E9        29.84R FOG
ALEXANDRIA     PTCLDY    72  69  90 E10       29.90R
ELBOW LAKE     FAIR      73  69  88 SE12      29.85S
WADENA         PTCLDY    70  66  88 E6        29.90R
GLENWOOD       PTCLDY    72  70  94 E7        29.89R FOG
APPLETON       PTCLDY    77  72  83 E8        29.83R
BENSON         MOCLDY    73  70  88 SE8       29.85R
ORTONVILLE     PTCLDY    77  72  83 E10       29.82R
MADISON        MOCLDY    75  73  94 SE8       29.82R
WILLMAR        FAIR      75  72  88 E8        29.88R
$$
MNZ033>034-036-042>043-049>051-058-059-030300-
   Central Minnesota

CITY           SKY/WX    TMP DP  RH WIND       PRES   REMARKS
ST CLOUD       MOCLDY    71  68  90 E5        29.90R
SAUK CENTRE    FAIR      70  68  93 E5        29.90R
PAYNESVILLE    MOCLDY    72  69  92 NE6       29.89S
AITKIN         CLEAR     66  61  82 CALM      29.92R
PINE RIVER     CLEAR     66  64  94 SE3       29.95R
BRAINERD       CLEAR     65  63  93 CALM      29.92R
STAPLES        CLEAR     70  64  83 E3        29.91R
LONG PRAIRIE   FAIR      68  64  88 E5        29.90S
LITTLE FALLS   CLOUDY    72  64  78 E5        29.91R
LITCHFIELD     MOCLDY    73  72  94 E8        29.89R
BUFFALO        CLEAR     70  66  88 NE6       29.90R
MAPLE LAKE     PTCLDY    71  69  94 E8        29.91R
$$
MNZ037-044-045-052-053-030300-
   East Central Minnesota

CITY           SKY/WX    TMP DP  RH WIND       PRES   REMARKS
PRINCETON      CLEAR     70  68  94 CALM      29.91R
MORA           CLOUDY    70  66  88 E3        29.93S
CAMBRIDGE      CLEAR     72  63  73 E3        29.90R
RUSH CITY      CLOUDY    71  67  88 E3        29.92R
MOOSE LAKE     CLEAR     64  63  94 CALM      29.92S
HINCKLEY       CLOUDY    70  68  94 E3        29.93R
CLOQUET        CLEAR     64  61  88 E5        29.96R
MCGREGOR       CLEAR     66  64  94 E6        29.94R
$$
MNZ071>073-080-081-089-090-097-098-030300-
   Southwest Minnesota

CITY           SKY/WX    TMP DP  RH WIND       PRES   REMARKS
MONTEVIDEO     MOCLDY    75  73  94 SE9       29.85R
GRANITE FALLS  MOCLDY    77  74  91 E7        29.85S
CANBY          MOCLDY    77  73  90 SE6       29.84R
MARSHALL       MOCLDY    79  72  78 S8        29.85R
REDWOOD FALLS  MOCLDY    78  74  87 E7        29.85R
OLIVIA         MOCLDY    72  68  88 E7        29.86R
PIPESTONE      PTCLDY    75  72  88 SE6       29.87R
WINDOM         MOCLDY    77  72  83 CALM      29.87S
WORTHINGTON    PTCLDY    75  70  83 S7        29.88R
JACKSON        MOCLDY    77  72  83 S6        29.89R
TRACY          MOCLDY    77  73  88 S5        29.86R
SLAYTON        MOCLDY    74  73  98 CALM      29.88R
$$
MNZ065>067-074>077-082>085-091>093-030300-
   South Central Minnesota

CITY           SKY/WX    TMP DP  RH WIND       PRES   REMARKS
MANKATO        PTCLDY    75  72  88 SE5       29.87R
NEW ULM        MOCLDY    75  73  94 E3        29.86R
ST JAMES       MOCLDY    75  73  94 SE5       29.87R
FAIRMONT       PTCLDY    75  66  73 S7        29.88R
GLENCOE        PTCLDY    74  72  95 CALM      29.88R
FARIBAULT        N/A     70  70 100 CALM      29.89R FOG
OWATONNA       CLEAR     75  70  83 E3        29.89R
WASECA         PTCLDY    72  70  94 SE5       29.89S
ALBERT LEA     PTCLDY    75  72  88 CALM      29.89R
$$
MNZ078>079-086>088-094>096-030300-
   Southeast Minnesota

CITY           SKY/WX    TMP DP  RH WIND       PRES   REMARKS
ROCHESTER      PTCLDY    74  71  91 S6        29.91R
RED WING       CLEAR     73  70  88 E3        29.88R
STANTON        CLEAR     73  70  89 NE3       29.88R
DODGE CENTER   PTCLDY    72  70  94 SE5       29.90R
WINONA         MOCLDY    77  70  78 CALM      29.89R
AUSTIN         CLEAR     75  72  88 CALM      29.90R
PRESTON        PTCLDY    74  70  86 CALM      29.92R
$$
ABBREVIATIONS USED IN REMARKS
   TC - TEMPERATURES IN CELSIUS
  WCI - WIND CHILL INDEX
   HX - HEAT INDEX
  VSB - VISIBILITY
$$



USA.gov is the U.S. government's official web portal to all federal, state and local government web resources and services.